Theta_e
340 342 343 343 342 343 344 345 347 345 344 342 341 341 342 341 341 333 333 332 333 335 337 338 340 341 342 341 342 343 343 344 345 346 347 346 346 345 344 342 340 343 344
337 340 344 344 346 347 343 345 346 348 346 344 340 340 341 342 342 333 333 334 334 335 336 338 340 340 340 340 341 342 344 344 345 346 346 345 345 344 343 343 338 342 344
337 344 347 346 347 346 345 343 347 348 344 341 341 341 340 342 341 342 345 342 343 338 337 338 340 341 343 343 344 344 345 344 344 345 345 340 345 346 345 341 337 340 345
345 345 345 344 343 341 341 344 346 347 343 342 343 342 343 340 336 341 342 345 347 346 347 344 341 344 346 346 347 348 348 348 347 344 344 339 344 345 346 336 335 338 342
344 347 344 345 344 342 344 346 350 347 347 343 343 344 343 344 341 344 344 341 346 345 346 348 348 347 352 353 353 353 351 349 347 348 345 337 343 345 345 330 331 334 336
347 345 347 347 343 347 346 347 348 346 347 347 343 343 343 344 345 347 347 345 346 347 346 345 347 347 351 353 354 354 353 347 347 347 345 341 344 344 344 326 326 331 331
344 346 345 343 343 345 347 347 348 349 345 348 348 346 344 345 345 348 346 346 345 339 342 338 342 338 346 352 354 355 350 340 337 337 339 343 344 343 340 326 331 336 337
344 349 344 346 345 336 342 345 346 345 347 346 347 345 346 347 345 345 344 344 344 340 338 343 336 342 343 347 348 354 347 339 338 338 339 343 344 343 340 338 330 334 336
346 350 347 347 338 341 341 344 340 338 338 345 346 334 341 345 344 343 337 342 336 337 336 336 336 338 340 348 352 350 341 339 338 339 341 345 344 343 343 340 341 342 341
344 344 347 346 343 341 346 348 345 341 343 342 338 347 346 342 342 345 334 337 340 341 339 338 341 346 347 347 350 347 344 341 341 337 341 344 344 344 344 344 344 343 343
346 346 349 346 347 344 338 346 348 346 343 348 335 346 337 347 347 344 345 347 344 344 343 341 346 348 347 348 346 344 347 341 340 338 340 344 344 344 345 343 342 343 345
344 345 345 349 342 342 341 348 344 345 344 344 347 347 346 348 348 347 346 347 345 344 345 343 344 344 349 349 348 348 346 344 343 338 337 344 344 343 339 336 336 337 338
346 345 345 348 349 343 344 345 345 342 342 351 343 345 346 350 351 345 345 347 344 340 343 344 345 342 345 348 349 347 348 347 348 346 337 343 343 341 336 338 345 346 346
348 347 347 347 346 346 347 345 342 342 344 346 343 343 340 341 344 343 349 348 344 345 342 348 346 347 346 348 347 345 346 349 350 345 346 341 342 338 337 341 345 345 344
348 349 348 349 349 348 346 348 348 348 347 350 349 351 349 348 343 349 349 346 345 345 343 348 349 349 348 349 347 345 346 348 348 346 346 345 339 336 337 339 344 345 343
347 349 351 350 351 348 348 350 347 346 347 349 347 348 350 349 349 347 347 349 347 346 345 346 348 348 346 347 346 346 341 344 347 345 346 346 339 337 339 341 342 343 343
347 349 349 347 346 347 349 350 349 348 346 350 351 350 349 348 349 350 342 344 346 347 347 346 349 347 344 344 346 345 344 342 345 347 347 345 341 341 341 341 340 338 338
348 343 345 346 343 344 347 348 348 347 346 346 345 347 344 346 346 349 349 347 345 348 347 345 343 343 344 338 339 342 341 339 346 347 345 345 344 342 341 341 338 337 335
346 347 345 347 346 347 347 350 349 349 348 346 347 348 348 348 347 345 345 345 346 345 347 347 347 345 340 341 344 342 341 342 343 343 345 342 341 343 341 339 337 335 333
351 348 346 347 348 345 346 347 347 347 345 347 347 346 348 346 347 349 348 346 347 345 344 344 344 340 341 345 345 341 342 343 341 343 343 339 342 343 339 337 336 335 334
348 345 346 346 348 348 346 344 347 345 347 346 344 345 346 346 347 346 344 342 344 343 344 344 344 342 342 342 343 341 341 341 344 346 345 344 344 342 337 336 336 338 336
345 348 348 346 349 348 346 347 346 347 347 345 344 344 345 346 346 342 341 342 343 343 344 344 342 341 341 340 338 339 343 343 341 341 344 343 343 341 338 339 339 339 336
346 345 346 347 345 344 344 345 345 345 344 344 342 342 341 341 343 342 341 342 343 343 343 342 341 339 337 338 338 339 340 339 339 340 341 342 342 342 339 338 338 336 333
344 344 344 344 345 344 344 344 342 342 343 342 341 342 342 341 340 340 342 341 342 340 339 338 337 337 338 338 338 337 336 337 338 339 340 339 339 339 340 339 336 335 329
347 346 345 347 347 347 345 344 343 343 343 342 342 342 341 340 338 337 338 341 339 338 338 338 337 336 337 336 335 334 333 333 336 337 337 336 338 337 339 337 334 330 328
344 344 344 344 344 343 343 343 343 342 341 340 340 338 337 337 337 338 337 337 337 338 339 338 337 335 335 334 333 332 331 331 331 334 334 335 336 337 335 331 330 330 328
Wind_Speed
8 9 13 9 6 5 8 4 6 8 11 7 8 8 10 4 4 4 7 9 9 8 6 5 5 5 6 7 8 8 8 9 11 12 14 15 13 12 12 11 9 6 5
9 11 5 8 4 5 2 3 1 1 5 3 4 6 7 4 2 7 8 7 7 6 4 3 3 4 4 5 6 7 8 9 10 11 14 15 14 13 13 11 10 6 5
13 10 4 2 1 1 5 2 3 1 6 2 6 5 11 7 4 5 4 5 8 7 6 4 3 4 5 6 7 8 9 10 11 11 11 15 14 15 16 12 10 6 5
10 7 4 5 1 6 7 4 1 3 10 3 5 8 4 4 4 3 2 3 6 7 8 5 4 4 6 8 8 9 10 10 10 11 11 13 12 13 15 13 10 7 5
14 10 11 9 5 12 8 5 5 11 12 8 2 7 5 4 2 5 2 6 8 10 13 9 11 8 8 10 9 10 11 11 9 9 11 11 10 11 14 12 9 8 7
11 11 7 8 8 12 9 6 7 6 5 9 8 6 10 2 3 4 10 6 12 13 8 17 14 11 11 10 10 11 13 11 9 9 8 8 10 10 12 10 8 9 9
9 7 8 8 5 7 8 12 6 10 8 3 1 12 12 16 10 8 8 9 9 16 22 11 20 18 8 4 6 8 12 10 10 8 4 8 9 9 9 9 8 8 8
12 6 3 3 6 5 14 4 4 10 5 4 3 3 5 9 12 12 11 14 14 15 11 17 31 16 12 8 2 7 11 10 11 10 6 8 9 8 6 9 8 7 8
8 7 3 2 6 4 5 2 2 11 5 8 5 5 3 10 13 13 14 10 14 15 15 15 14 15 3 4 2 8 8 10 12 12 10 7 9 7 5 5 7 7 7
8 11 2 3 8 5 5 5 4 5 3 9 4 5 9 7 6 13 4 10 10 12 15 10 7 1 4 0 3 5 8 10 12 13 10 6 7 8 8 5 7 7 7
12 10 7 8 6 6 13 7 2 1 6 5 17 4 7 10 7 5 12 16 11 14 11 13 5 4 5 4 2 8 9 11 13 12 9 6 7 9 9 10 8 8 7
8 12 11 10 9 13 13 11 10 10 8 11 5 5 3 6 8 7 13 12 12 10 11 13 4 3 4 2 6 6 10 10 12 12 10 7 9 11 12 12 10 7 6
12 10 14 12 9 9 13 12 11 10 11 9 11 11 14 9 6 9 11 14 14 11 11 13 9 10 3 5 6 7 8 9 11 15 9 8 9 12 11 9 8 8 7
12 11 12 14 12 10 10 11 13 10 8 8 10 9 11 14 12 8 12 11 11 9 12 14 11 2 8 3 6 12 10 10 9 13 11 10 11 14 11 9 7 8 10
13 11 11 12 13 12 12 14 12 12 12 12 8 8 8 6 7 11 10 8 8 5 9 9 5 6 5 3 4 6 10 11 11 12 13 12 11 12 11 9 8 7 7
18 14 14 13 15 15 13 12 13 13 13 13 11 11 13 13 13 14 14 8 7 7 3 4 1 1 5 3 7 10 11 7 9 11 11 9 10 8 9 8 6 7 7
19 21 18 17 15 14 16 17 17 15 15 16 13 15 16 16 15 13 12 12 12 11 9 8 8 10 12 11 11 10 11 8 5 11 8 6 8 8 7 7 7 7 6
17 16 15 14 12 12 15 14 15 13 14 17 17 16 14 13 13 13 14 12 10 11 13 15 16 13 13 14 15 14 16 14 9 6 4 7 3 7 8 5 5 5 6
14 12 14 13 11 12 12 11 11 11 14 15 17 17 17 15 15 15 16 16 16 17 17 16 15 14 13 11 10 12 14 9 10 11 11 7 3 5 6 3 3 5 7
15 13 12 11 8 7 10 11 10 8 9 10 12 13 15 16 16 16 17 17 18 18 16 15 15 15 13 10 10 11 9 7 9 8 7 4 5 5 4 2 4 6 9
15 13 12 8 9 9 9 9 9 9 8 9 11 11 11 11 13 16 18 17 18 18 17 16 15 12 10 9 7 9 8 8 7 6 9 8 7 4 2 2 5 9 12
17 15 13 13 13 14 13 10 10 11 13 15 15 15 15 16 17 17 15 16 16 15 15 12 10 11 9 9 8 7 6 7 8 10 8 6 9 7 6 6 9 11 13
20 20 18 17 19 19 18 15 16 16 18 18 18 16 14 17 14 13 12 13 13 11 10 10 9 9 10 10 9 7 8 9 8 10 7 6 11 11 13 10 10 10 11
20 18 18 20 21 21 20 18 18 18 20 21 17 15 14 14 11 9 9 9 6 6 8 10 10 10 9 9 8 8 8 8 7 7 10 11 12 12 15 12 11 12 12
16 17 19 18 17 17 18 18 18 18 17 17 16 15 13 12 10 7 9 11 11 8 8 8 7 10 9 10 9 10 10 10 8 7 8 9 12 12 12 12 12 10 7
13 12 12 13 15 16 19 21 20 13 9 9 8 6 5 2 2 5 8 12 14 13 7 7 5 5 8 12 11 11 9 11 12 11 10 7 11 11 13 15 15 12 8
Wind_Direction
146 134 135 125 108 69 81 78 72 97 82 94 85 103 171 170 1 86 114 114 111 108 107 104 101 95 85 75 64 52 41 35 35 31 24 18 12 10 7 2 349 330 340
172 156 151 122 66 23 287 145 100 179 142 219 168 191 160 175 149 78 79 87 92 96 96 97 88 69 54 47 44 37 22 16 13 13 16 16 16 16 14 4 358 341 345
151 142 104 114 357 182 159 238 162 138 173 60 170 161 166 208 185 152 72 59 42 63 57 46 47 43 35 20 18 16 10 6 3 358 2 12 8 11 12 9 2 356 351
161 158 181 152 92 232 183 164 138 131 188 55 140 165 144 166 235 167 110 332 325 332 327 345 355 20 4 350 1 359 356 348 350 354 351 353 3 5 7 7 8 2 358
176 177 149 179 194 173 173 211 288 276 221 216 253 181 233 304 139 154 25 334 313 306 303 313 300 312 335 333 341 352 358 348 336 336 344 356 3 7 9 11 21 18 12
170 170 165 185 204 200 215 221 222 185 150 213 218 218 231 252 284 230 225 239 254 272 317 275 261 265 266 274 318 335 343 355 344 335 338 355 3 5 7 20 44 41 38
193 148 186 204 251 221 258 213 217 189 196 292 39 203 221 236 232 212 255 277 307 309 295 301 280 288 277 258 281 325 345 355 1 357 353 354 359 4 13 27 51 45 41
175 172 176 148 256 246 168 217 112 235 196 314 36 229 325 251 234 248 252 274 297 330 302 296 303 259 320 318 346 322 343 3 8 9 6 353 6 15 29 33 35 29 25
179 175 164 118 186 138 176 227 282 222 206 262 345 251 257 270 266 264 289 268 316 356 355 334 303 305 358 273 350 342 1 0 1 354 355 3 9 25 29 12 5 6 7
185 179 126 233 171 164 176 295 171 191 328 261 209 187 261 307 337 327 342 280 313 326 4 12 255 135 120 27 137 339 352 348 345 347 344 356 8 15 15 5 340 326 331
197 185 180 204 197 183 192 251 242 206 248 270 251 344 304 341 318 345 343 355 335 325 359 42 44 104 351 145 71 336 342 345 344 347 345 342 346 340 336 330 322 307 300
217 188 195 220 221 209 221 226 232 242 245 266 254 283 333 309 344 274 317 341 354 353 351 352 350 44 336 156 323 341 345 353 352 359 350 336 340 338 336 332 332 323 300
190 187 205 217 232 233 222 231 240 242 248 238 246 258 254 268 305 336 327 307 326 340 354 4 21 305 283 254 285 325 337 351 351 354 355 337 338 338 339 343 352 359 346
203 200 230 238 230 235 236 238 245 253 245 242 251 262 261 252 270 310 330 335 305 327 340 24 39 10 282 291 337 342 337 337 341 348 356 341 346 346 339 347 352 7 18
212 224 229 231 236 241 243 241 243 243 242 240 249 259 281 258 262 294 302 315 332 310 326 37 60 68 36 359 332 331 327 323 322 337 339 336 343 347 339 338 341 351 5
213 219 221 232 248 256 237 242 245 250 251 241 245 252 261 269 263 281 281 298 339 316 352 343 161 260 314 285 305 322 316 318 316 311 319 327 349 352 343 344 345 346 353
215 220 233 242 242 245 241 242 249 250 249 256 273 254 256 266 266 265 293 288 288 291 289 269 288 306 298 297 291 290 294 286 282 308 274 310 9 359 356 356 2 8 11
226 235 240 240 246 246 251 249 251 252 257 261 263 260 268 276 264 271 274 275 284 276 283 283 282 303 300 305 300 301 268 284 319 287 283 297 347 349 339 349 355 7 19
238 246 238 241 240 241 239 241 244 246 251 257 258 262 268 266 263 261 273 279 277 279 277 285 291 299 309 305 305 314 286 273 305 285 282 315 312 340 338 332 2 7 11
229 240 232 225 222 239 243 242 241 242 254 256 258 263 273 279 274 276 274 278 276 273 278 278 284 290 296 298 306 320 311 313 292 281 250 261 274 307 325 0 8 355 351
232 230 234 227 231 232 240 247 251 260 275 277 274 268 267 269 270 271 275 275 275 277 276 281 281 282 290 306 308 313 301 298 298 259 259 256 252 250 221 3 338 338 342
237 229 234 233 231 247 250 248 250 264 275 283 278 276 279 278 278 286 280 276 270 271 271 269 274 281 292 297 290 277 268 284 296 287 263 265 252 244 241 276 306 318 330
224 231 240 240 244 248 252 258 262 267 274 266 271 276 270 271 282 286 283 277 268 268 264 268 274 285 293 292 292 272 260 262 270 281 256 254 244 257 247 261 295 311 328
234 235 239 243 246 245 246 252 268 268 268 270 265 259 255 260 277 276 265 265 265 261 272 279 288 290 290 288 286 282 269 260 253 247 255 246 258 254 249 255 277 300 322
222 232 233 236 243 244 257 262 267 266 261 257 254 254 248 252 254 255 257 255 258 267 280 268 282 292 284 278 281 280 274 269 251 240 250 261 254 246 242 246 260 278 297
224 238 256 265 269 272 273 266 253 241 236 247 243 251 252 235 312 293 275 261 257 274 274 274 247 280 287 277 276 281 284 264 259 255 255 243 229 224 232 245 246 248 256